Home > Weather > Shymkent > Past weeks

Flag for Kazakhstan Weather for the Past 2 Weeks in Shymkent, Kazakhstan

Now
21 °F

Ice fog.


Feels Like: 21 °F
Forecast: 19 / 33 °F
Wind: 1 mph from North

Location: Shymkent Airport

Current Time: Feb 10, 2016 at 6:53:45 AM

Latest Report: Feb 10, 2016 at 6:00 AM


Visibility: 0 mi

Pressure: 30.27 "Hg (28.37 "Hg at 506m altitude)

Humidity: 100%

Dew point: 21 °F

Location of ShymkentLocation

Historic Weather in Shymkent — Graph

°F

Shymkent Temperature Yesterday

Maximum temperature yesterday: 39 °F (at 12:00 AM)
Minimum temperature yesterday: 18 °F (at 11:30 PM)
Average temperature yesterday: 30 °F

High & Low Weather Summary for the Past Weeks

 TemperatureHumidityPressure
High68 °F (Feb 7, 4:00 PM)100% (Jan 26, 7:00 PM)30.54 "Hg (Jan 26, 7:00 PM)
Low18 °F (Feb 9, 11:30 PM)13% (Feb 7, 4:00 PM)29.80 "Hg (Jan 26, 5:00 AM)
Average36 °F81%30.23 "Hg
* Reported Jan 26 5:00 AM — Feb 10 5:30 AM, Shymkent, Weather by CustomWeather, © 2016

Note: Actual official high and low records may vary slightly from our data, if they occured in-between our weather recording intervals... More about our weather records

Advertising

Shymkent Weather History for the Previous 24 Hours

 ConditionsComfort  
Time TempWeatherWind HumidityBarometerVisibility
5:30 AM
Wed, Feb 10
21 °FIce fog.1 mph100%30.24 "Hg0 mi
5:00 AM21 °FIce fog.1 mph100%30.24 "Hg1 mi
4:30 AM21 °FIce fog.3 mph100%30.24 "Hg1 mi
3:30 AM21 °FIce fog.No wind100%30.24 "Hg1 mi
3:00 AM21 °FIce fog.1 mph100%30.24 "Hg1 mi
2:30 AM21 °FIce fog.1 mph100%30.24 "Hg1 mi
2:00 AM23 °FIce fog.1 mph100%30.21 "Hg1 mi
1:30 AM21 °FIce fog.1 mph100%30.21 "Hg1 mi
1:00 AM23 °FIce fog.1 mph100%30.21 "Hg1 mi
12:30 AM21 °FIce fog.1 mph100%30.21 "Hg2 mi
12:00 AM19 °FIce fog.1 mph100%30.21 "Hg2 mi
11:30 PM
Tue, Feb 9
18 °FIce fog.1 mph100%30.21 "Hg2 mi
11:00 PM19 °FIce fog.3 mph100%30.21 "Hg3 mi
10:30 PM21 °FLow clouds.3 mph93%30.21 "Hg5 mi
10:00 PM27 °FMostly cloudy.13 mph86%30.21 "Hg5 mi
9:30 PM23 °FIce fog.6 mph100%30.21 "Hg3 mi
9:00 PM23 °FIce fog.3 mph100%30.21 "Hg3 mi
8:30 PM21 °FIce fog.1 mph100%30.21 "Hg1 mi
8:00 PM27 °FIce fog.3 mph100%30.21 "Hg1 mi
7:30 PM28 °FIce fog.1 mph100%30.21 "Hg3 mi
7:00 PM30 °FOvercast.3 mph100%30.21 "Hg4 mi
6:30 PM32 °FMore clouds than sun.3 mph100%30.21 "Hg4 mi
6:00 PM32 °FMore clouds than sun.1 mph100%30.21 "Hg4 mi
5:30 PM30 °FMore clouds than sun.No wind100%30.21 "Hg4 mi
4:30 PM30 °FSnow flurries. Ice fog.1 mph100%30.21 "Hg2 mi
4:00 PM32 °FSnow showers. Ice fog.1 mph100%30.21 "Hg1 mi
3:30 PM32 °FSnow showers. Ice fog.1 mph100%30.21 "Hg1 mi
3:00 PM32 °FSnow showers. Ice fog.3 mph100%30.21 "Hg1 mi
2:00 PM30 °FSnow flurries. Ice fog.3 mph100%30.21 "Hg1 mi
1:30 PM32 °FSnow flurries. Ice fog.3 mph100%30.21 "Hg1 mi
1:00 PM30 °FSnow showers. Ice fog.1 mph100%30.21 "Hg1 mi
12:30 PM30 °FSnow showers. Ice fog.3 mph100%30.21 "Hg1 mi
12:00 PM30 °FSnow flurries. Ice fog.3 mph100%30.21 "Hg1 mi
11:30 AM30 °FSnow flurries. Ice fog.3 mph100%30.21 "Hg1 mi
10:30 AM30 °FSnow flurries. Ice fog.3 mph100%30.18 "Hg1 mi
9:30 AM30 °FSnow showers. Ice fog.3 mph100%30.18 "Hg1 mi
9:00 AM30 °FSnow showers. Ice fog.3 mph100%30.18 "Hg1 mi
8:30 AM30 °FSnow showers. Ice fog.6 mph100%30.18 "Hg1 mi
8:00 AM30 °FSnow showers. Ice fog.6 mph100%30.15 "Hg1 mi
7:30 AM32 °FSprinkles. Ice fog.6 mph100%30.15 "Hg2 mi
7:00 AM32 °FSprinkles. Ice fog.8 mph100%30.15 "Hg2 mi
6:30 AM32 °FSprinkles. Ice fog.6 mph100%30.15 "Hg2 mi
6:00 AM32 °FSprinkles. Ice fog.8 mph100%30.15 "Hg2 mi
Weather by CustomWeather, © 2016

See weather overviewHow to use our weather pages